Location: Burgmannshofen
(48.7891°N, 10.9728°E)
Time: 09:58:24
(UTC+00:00)

Daily predictions for brighter satellites

Satellite Brightness Start Highest point End
(mag) Time Altitude Azimuth Time Altitude Azimuth Time Altitude Azimuth
Cosmos 1538 Rocket 4.2 19:31:02 10° SSW 19:36:17 79° WNW 19:41:31 10° NNE
CZ-4C R/B 3.5 19:32:50 10° NNE 19:36:26 48° E 19:40:09 10° S
NOSS 0 Rocket 4.5 19:30:24 10° SW 19:36:30 67° WNW 19:42:41 10° NNE
COSMOS 2428 4.4 19:31:11 10° WSW 19:36:30 40° NW 19:41:52 10° NNE
MetOp-B 4.3 19:31:57 10° SSE 19:37:12 62° ENE 19:42:30 10° N
Cosmos 2056 Rocket 4.1 19:32:29 10° NNW 19:37:42 45° ENE 19:42:49 10° SE
Lacrosse 5 1.9 19:33:21 10° NW 19:38:30 89° NE 19:43:38 10° SE
USA 276 1.6 19:39:38 10° WNW 19:41:47 60° N 19:44:01 10° E
Ariane Rocket 3.9 19:37:17 10° SE 19:41:48 34° ENE 19:46:21 10° N
Meteor 1-5 Rocket 4.4 19:36:27 10° N 19:42:23 67° ENE 19:48:08 10° SSE
IRS-1C Rocket 4.3 19:37:49 10° SSE 19:42:59 62° ENE 19:48:12 10° N
CZ-4 R/B 4.0 19:40:54 10° SW 19:43:28 17° W 19:46:04 10° NW
Cosmos 44 3.7 19:38:52 10° NNW 19:43:43 53° NE 19:48:14 10° ESE
Lacrosse 5 rocket 1.5 19:39:58 10° SSW 19:44:08 52° SE 19:48:16 10° ENE
Cosmos 2369 Rocket 3.1 19:39:56 10° NNW 19:45:09 38° NE 19:50:20 10° ESE
Cosmos 1812 Rocket 3.5 19:40:57 10° S 19:45:21 73° E 19:49:46 10° NNE
ATLAS 5 CENTAUR R/B 4.0 19:43:02 10° WNW 19:47:08 23° WSW 19:51:52 10° SSW
Cosmos 2221 3.2 19:46:50 10° SSE 19:50:46 35° E 19:54:43 10° NNE
Cosmos 2344 4.2 19:42:37 10° NW 19:50:58 81° SW 20:02:33 10° SSE
Cosmos 2084 3.8 19:50:33 10° NNW 19:54:11 45° NE 19:57:45 10° ESE
Resurs 01 Rocket 3.3 19:50:45 10° SSW 19:54:42 32° W 19:58:42 10° NNW
Cosmos 2237 Rocket 2.9 19:53:18 10° SW 19:58:56 60° WNW 20:04:36 10° NNE
BREEZE-M DEB (TANK) 2.3 19:57:01 10° SW 20:00:06 41° SSE 20:02:07 10° E
USA 308 3.7 19:58:22 10° W 20:00:29 21° SW 20:02:55 10° SSE
Cosmos 1378 2.7 19:58:01 10° S 20:01:16 72° E 20:04:33 10° NNE
ATLAS 3B R/B 3.1 19:54:32 10° NW 20:02:25 84° SW 20:09:48 12° SE
BREEZE-M DEB (TANK) 3.9 19:59:51 10° SW 20:03:23 47° SSE 20:12:17 10° E
Cosmos 921 Rocket 3.9 20:01:21 10° SSE 20:05:17 32° E 20:09:17 10° NE
Aureole 3 Rocket 3.0 20:02:54 10° N 20:06:27 62° E 20:10:56 11° SSE
GEOS 3 Rocket 4.0 20:02:34 10° NE 20:07:27 41° ESE 20:12:16 10° SSW
SPOT 5 2.9 20:03:01 10° S 20:07:42 77° WSW 20:12:12 10° NNW
Cosmos 923 Rocket 4.0 20:02:25 10° SSW 20:07:44 87° ESE 20:13:07 10° NNE
USA 306 4.1 20:05:29 10° WNW 20:08:58 36° N 20:12:37 10° ENE
Landsat 4 3.6 20:08:44 14° SSE 20:11:42 63° ENE 20:15:11 10° N
ARGOS Delta rocket 4.0 20:09:57 11° SSE 20:14:58 74° ENE 20:19:53 10° N
Cosmos 1943 4.4 20:12:15 13° SE 20:15:49 23° ESE 20:20:09 10° NE
Okean O Rocket 3.8 20:13:10 10° SW 20:16:42 23° W 20:20:14 10° NW
USA 234 4.4 20:11:25 10° ENE 20:17:31 43° N 20:23:38 10° WNW
Terra 1.8 20:13:56 12° SSE 20:18:12 75° ENE 20:22:56 10° N
Cosmos 1656 Rocket 3.6 20:17:28 10° NNW 20:22:57 81° ENE 20:27:23 16° SSE
Cosmos 1371 Rocket 4.1 20:18:05 10° NNW 20:23:27 82° WSW 20:28:03 14° SSE
ERS-1 Rocket 3.0 20:18:56 11° SSE 20:23:44 85° WSW 20:28:48 10° NNW
ATLAS 2AS CENTAUR R/B 3.6 20:19:22 10° WSW 20:26:37 58° NW 20:33:36 10° NE
Cosmos 1842 Rocket 4.2 20:24:38 16° SSE 20:27:41 38° E 20:31:48 10° NNE
SPOT 3 Rocket 3.6 20:24:07 15° SSE 20:28:25 74° ENE 20:33:34 10° N
Meteor 1-14 Rocket 4.4 20:22:44 10° N 20:28:33 68° ENE 20:33:21 16° SSE
USA 59 Rocket 2.3 20:28:53 10° N 20:31:02 15° NNE 20:33:28 10° ENE
Meteor 1-11 Rocket 4.5 20:26:35 10° N 20:31:50 39° ENE 20:35:44 17° SE
USA 281 3.3 20:27:32 15° SE 20:33:03 76° ENE 20:39:40 10° NNW
Cosmos 1943 Rocket 4.0 20:30:10 10° NW 20:34:43 25° WSW 20:39:14 10° SSW
Cosmos 1743 2.6 20:35:17 10° NNW 20:38:55 79° W 20:41:25 19° S
ISS -3.2 20:37:36 10° WNW 20:40:55 58° NNE 20:43:46 13° E
ARIANE 5 R/B 4.4 20:38:36 13° ESE 20:41:11 20° ENE 20:44:22 10° NNE
USA 245 3.5 20:42:39 18° SSW 20:43:51 30° W 20:45:54 10° NW
Cosmos 2279 Rocket 4.0 20:40:12 10° N 20:46:24 69° ENE 20:50:54 19° SSE
Cosmos 2297 3.9 20:41:29 10° NNW 20:47:12 68° WSW 20:51:24 19° SSE
Cosmos 1634 Rocket 4.1 20:41:02 10° N 20:47:21 83° W 20:52:38 15° S
Cosmos 2112 Rocket 4.4 20:44:54 10° SSW 20:50:12 68° WNW 20:55:30 10° NNE
USA 290 4.4 20:48:50 10° NW 20:51:16 20° WSW 20:53:34 10° SSW
Cosmos 1766 Rocket 4.1 20:47:39 10° NNW 20:52:00 56° W 20:55:32 15° S
USA 229 DEB 4.0 20:48:30 10° NW 20:55:55 87° SW 21:01:46 21° SE
USA 229 4.0 20:48:36 10° NW 20:56:01 87° SW 21:01:53 21° SE
Cosmos 1726 1.6 20:54:21 10° N 20:57:30 68° E 20:58:35 36° SSE
Spot 2 Rocket 4.0 20:54:06 15° S 20:58:07 56° W 21:03:06 10° NNW
Cosmos 1680 Rocket 4.5 20:55:25 10° SW 21:00:32 49° WNW 21:05:40 10° NNE
Meteor 2-6 Rocket 4.3 20:58:37 10° SSW 21:04:16 80° WNW 21:09:48 10° N
Cosmos 1743 Rocket 4.2 21:04:47 10° N 21:08:58 42° ENE 21:10:51 27° SE
MetOp-A 3.7 21:11:24 27° S 21:13:48 78° WSW 21:18:34 10° NNW
Sich 1 3.4 21:09:46 10° N 21:14:02 51° ENE 21:15:51 30° SE
USA 276 2.7 21:13:51 10° W 21:15:14 29° WSW 21:15:14 29° WSW
SL-16 R/B 3.1 21:10:37 10° SW 21:16:06 49° NW 21:21:39 10° NNE
Cosmos 2263 4.3 21:11:03 10° NNW 21:16:43 70° WSW 21:20:00 26° SSE
MOS 1 Rocket 4.1 21:13:56 18° SSW 21:17:27 51° W 21:22:34 10° NNW
Cosmos 1603 4.1 21:15:41 26° SSE 21:18:28 44° ESE 21:23:51 10° NE
Ariane Rocket 4.1 21:16:49 14° SSW 21:20:40 37° W 21:25:24 10° NNW
Cosmos 1536 2.7 21:16:48 10° N 21:20:41 83° W 21:22:15 35° S
Cosmos 1975 4.4 21:17:32 10° NNE 21:20:44 23° ENE 21:21:58 20° E
Lacrosse 5 3.5 21:17:03 10° WNW 21:20:57 22° SW 21:23:08 17° SSW
Cosmos 2180 Rocket 4.4 21:15:39 10° N 21:21:54 90° E 21:25:40 25° S
USA 267 4.1 21:17:14 10° ENE 21:22:28 25° SE 21:23:23 24° SE
Lacrosse 5 rocket 2.7 21:18:32 10° W 21:22:37 42° NNW 21:26:37 10° NE
Cosmos 1452 Rocket 3.5 21:18:49 10° NNW 21:24:05 83° WSW 21:26:45 30° SSE
Cosmos 1408 Rocket 3.6 21:19:37 10° NNW 21:24:06 80° W 21:26:12 31° S
Spot 1 4.3 21:20:34 10° N 21:24:34 61° WNW 21:27:37 17° SSW
Meteor 1-27 Rocket 3.8 21:22:18 27° SSE 21:25:11 59° E 21:30:38 10° NNE
Cosmos 468 4.5 21:22:15 25° S 21:25:14 63° ESE 21:30:24 10° NNE
Okean 1 3.1 21:25:59 38° S 21:27:21 75° E 21:31:13 10° NNE
Cosmos 1340 2.9 21:24:54 10° N 21:28:12 44° ENE 21:28:49 39° ESE
Cosmos 2369 Rocket 3.0 21:23:59 10° NW 21:29:14 42° WSW 21:32:23 22° SSW
Cosmos 1626 4.2 21:31:50 12° ENE 21:31:50 12° ENE 21:32:56 10° ENE
USA 306 3.0 21:39:20 10° WNW 21:43:11 62° NNE 21:45:08 27° E
Meteor 2-17 Rocket 4.4 21:50:28 28° S 21:53:52 89° E 21:59:58 10° N
SL-8 R/B 3.6 21:50:57 10° WSW 21:55:36 57° SSE 22:00:17 10° E
Terra 4.2 21:53:41 10° WSW 21:56:21 15° W 21:59:03 10° NW
Cosmos 1500 Rocket 4.1 21:52:11 10° NNW 21:56:23 49° W 21:57:58 32° SSW
Cosmos 1328 Rocket 4.4 21:56:13 31° ESE 21:56:56 33° E 22:00:51 10° NNE
Cosmos 1943 3.5 21:53:56 11° SW 21:59:20 66° WNW 22:05:01 10° NNE
Cosmos 1733 3.3 21:56:05 10° NNW 21:59:32 54° W 22:00:07 47° SW
USA 234 3.8 21:53:32 10° E 21:59:57 59° NNE 22:06:21 10° NW
Spot 4 4.2 21:58:25 35° SE 22:00:09 55° ENE 22:04:49 10° N
ALOS 2 3.5 21:58:50 29° ESE 22:00:19 38° ENE 22:04:24 10° N
Meteor 2-4 Rocket 4.0 22:00:28 34° SSE 22:02:48 56° E 22:08:35 10° NNE
H-2A R/B 2.4 22:02:30 50° SSE 22:03:31 77° ENE 22:07:44 10° NNW
Cosmos 1805 Rocket 4.1 22:01:05 10° NNW 22:05:18 49° W 22:06:48 34° SW
IRIDIUM 104 4.3 22:00:59 10° N 22:06:14 86° E 22:08:14 39° S
Lacrosse 4 Rocket 2.9 22:04:54 10° NNW 22:08:30 30° NE 22:10:34 19° E
Cosmos 1151 Rocket 3.0 22:08:37 43° SSW 22:10:01 79° W 22:14:24 10° N
Cosmos 1092 Rocket 4.0 22:10:25 35° S 22:13:13 71° E 22:19:30 10° NNE
Cosmos 1666 Rocket 3.5 22:09:03 10° N 22:13:24 73° E 22:14:23 51° SSE
Cosmos 1428 Rocket 4.4 22:11:50 32° S 22:14:53 89° W 22:21:02 10° N
IRIDIUM 114 4.3 22:10:08 10° N 22:15:23 80° W 22:17:22 39° S
Cosmos 1302 Rocket 4.0 22:10:17 10° NNW 22:15:28 73° WSW 22:17:13 42° S
SAR-Lupe-3 4.4 22:15:44 69° ESE 22:16:01 75° ENE 22:19:33 10° N
Cosmos 1656 4.2 22:10:58 10° NNW 22:16:18 52° NE 22:19:03 27° ESE
Cosmos 1633 Rocket 3.2 22:12:40 10° N 22:17:05 66° ENE 22:18:08 48° SE
ARIANE 5 R/B 3.0 22:16:04 39° SSW 22:17:15 51° W 22:21:30 10° NNW
ISS -2.6 22:14:20 10° WNW 22:16:32 34° W 22:16:32 34° W
Cosmos 1340 Rocket 3.3 22:17:22 36° SW 22:18:39 53° WNW 22:22:36 10° N
USA 59 Rocket 0.2 22:17:21 10° NW 22:21:10 71° NE 22:22:59 37° ESE
NOSS 2-1 (E) 3.6 22:18:13 10° NW 22:22:02 73° NE 22:23:49 37° ESE
Cosmos 1992 Rocket 4.1 22:18:38 10° NNW 22:23:53 71° ENE 22:25:48 39° SE
IRIDIUM 103 4.5 22:19:20 10° N 22:24:31 67° W 22:26:30 37° SSW
CZ-2C R/B 4.3 22:20:55 10° N 22:25:21 53° WNW 22:27:23 29° SW
H-2A R/B 3.5 22:21:47 10° NE 22:25:27 24° E 22:25:53 24° ESE
Cosmos 1697 Rocket 4.1 22:21:55 10° NNW 22:26:56 31° NE 22:31:17 13° ESE
Cosmos 614 Rocket 3.9 22:27:44 44° S 22:29:21 71° ESE 22:34:34 10° NNE
Cosmos 1766 3.4 22:26:51 10° N 22:30:32 53° ENE 22:30:52 51° E
Cosmos 2195 Rocket 4.5 22:27:33 32° SSW 22:30:33 76° W 22:36:42 10° N
Cosmos 1980 Rocket 4.4 22:27:48 10° N 22:32:04 21° NE 22:36:19 10° E
NOSS 2-1 (D) 3.4 22:29:50 10° NW 22:33:40 88° SW 22:34:55 48° SE
Cosmos 1707 4.4 22:34:21 20° E 22:34:21 20° E 22:37:02 10° NE
Cosmos 1470 4.0 22:31:05 10° N 22:34:21 28° ENE 22:34:54 27° E
Cosmos 1805 4.1 22:36:20 10° NNW 22:39:46 36° W 22:40:09 35° WSW
Spot 2 4.5 22:50:57 47° SSW 22:51:56 59° WSW 22:56:41 10° NNW
Cosmos 1975 3.9 22:53:08 10° NNW 22:56:40 32° W 22:57:09 31° WSW
NOSS 3-3 (A) 4.0 22:59:41 43° SSE 23:01:03 52° ESE 23:07:10 10° NE
Lacrosse 5 rocket 3.6 22:58:11 10° WNW 23:01:46 26° N 23:05:16 10° ENE
Cosmos 1626 2.7 23:04:41 39° WNW 23:04:41 39° WNW 23:07:44 10° N
Cosmos 1269 Rocket 3.9 23:04:35 47° S 23:06:06 78° ESE 23:11:24 10° NNE
USA 267 3.1 22:59:36 10° ENE 23:06:10 77° SE 23:10:42 22° SW
Cosmos 1140 Rocket 4.3 23:05:26 32° SE 23:06:28 35° ESE 23:11:12 10° NE
Cosmos 1674 2.5 23:07:50 70° ENE 23:07:50 70° ENE 23:11:09 10° NNE
NOSS 2-1 (C) 3.9 23:05:04 10° NW 23:08:53 48° SW 23:09:07 47° SW
Cosmos 2082 Rocket 4.2 23:08:47 13° ESE 23:10:23 14° E 23:13:19 10° ENE
PSLV R/B 3.6 23:08:25 10° NNE 23:13:03 84° ESE 23:13:59 57° S
NOSS 3-4 (A) 4.5 23:09:44 10° NW 23:16:13 53° NE 23:23:43 10° ESE
NOSS 3-4 (C) 4.5 23:09:47 10° NW 23:16:17 53° NE 23:23:46 10° ESE
USA 306 4.2 23:13:15 10° WNW 23:15:15 24° W 23:15:15 24° W
Cosmos 1833 Rocket 3.0 23:17:10 41° SSE 23:18:37 52° ESE 23:24:03 10° NE
Cosmos 44 Rocket 4.0 23:17:58 10° NNW 23:22:51 51° NE 23:26:07 19° ESE
Cosmos 2315 Rocket 4.3 23:18:17 10° N 23:24:29 59° ENE 23:27:37 30° SE
S3M 4.0 23:19:17 10° N 23:25:42 85° E 23:28:27 37° SSE
NOSS 3-3 (C) 3.7 23:26:06 42° SSW 23:28:05 74° SE 23:34:29 10° NE
SL-24 R/B 4.4 23:25:50 10° N 23:30:13 65° WNW 23:31:32 44° SW
Cosmos 2285 Rocket 4.3 23:29:13 36° SSE 23:31:30 54° ESE 23:37:39 10° NNE
Cosmos 1515 Rocket 3.9 23:31:37 45° WSW 23:32:31 55° WNW 23:36:48 10° N
GP-B 3.1 23:30:35 10° N 23:34:59 71° E 23:35:54 53° SSE
Cosmos 1400 Rocket 4.2 23:34:57 26° ESE 23:35:35 27° E 23:38:59 10° NNE
ALOS 2 4.0 23:36:13 25° WSW 23:36:45 25° W 23:40:25 10° NW
Cosmos 1553 Rocket 4.5 23:31:41 10° NNW 23:37:26 45° W 23:39:39 32° SW
SL-8 R/B 3.6 23:33:09 10° W 23:37:56 88° S 23:42:44 10° E
Cosmos 1869 Rocket 3.4 23:37:47 10° N 23:42:10 85° WSW 23:42:58 59° S
USA 234 3.2 23:38:50 24° SE 23:42:56 65° SW 23:49:29 10° WNW
Meteor 1-13 Rocket 4.3 23:41:22 40° S 23:43:38 83° E 23:49:35 10° NNE
Cosmos 1733 Rocket 4.0 23:41:12 10° N 23:45:18 40° ENE 23:46:57 28° ESE
Lacrosse 4 Rocket 2.2 23:43:06 10° NW 23:46:28 35° WSW 23:46:28 35° WSW
Cosmos 1346 Rocket 4.4 23:50:45 10° N 23:54:08 28° ENE 23:55:56 20° ESE
